User: anonymous   Login
Location: Adrasan
(36.3319°N, 30.4314°E)
Time: 02:19:02
(UTC+00:00)
Language:

Meteor 1-25 Rocket - Orbit

View from above orbital plane
View from above orbital plane
View from above satellite
View from above satellite

Ground track
Ground track

The orbit data is extracted from the following two-line orbital elements,

1 08846U 76043B   24108.30716354  .00000170  00000-0  90680-4 0  9995
2 08846  81.2256  42.6080 0037380 168.4323 191.7715 14.08775846462182
Epoch (UTC): 17 April 2024 07:22:18
Eccentricity: 0.0037380
inclination: 81.2256°
perigee height: 836 km
apogee height: 890 km
right ascension of ascending node: 42.6080°
argument of perigee: 168.4323°
revolutions per day: 14.08775846
mean anomaly at epoch: 191.7715°
orbit number at epoch: 46218

The dashed part of the orbit path shows where the satellite is in the earth's shadow,  

DLR